Flag for United Kingdom Weather past 2 weeks in Telford, England, United Kingdom

Now
39 °F

Sprinkles. Partly cloudy.


Feels Like: 29 °F
Forecast: N/A
Wind: 21 mph from Southwest

Location: Shawbury

Current Time: Mar 3, 2015 at 9:04:09 PM

Latest Report: Mar 3, 2015 at 7:50 PM


Visibility: N/A

Pressure: 30.01 "Hg

Humidity: 75%

Dew point: 32 °F

Location of TelfordLocation

Historic Weather in Telford — Graph

°F

Telford temperature yesterday

Maximum temperature yesterday: 43 °F (at 12:24 PM)
Minimum temperature yesterday: 36 °F (at 12:50 AM)
Average temperature yesterday: 39 °F

Past Weeks' High & Low Weather Summary

 TemperatureHumidityPressure
High54 °F (Feb 28, 8:50 PM)100% (Feb 20, 5:50 AM)30.69 "Hg (Feb 20, 5:50 AM)
Low28 °F (Feb 20, 7:50 AM)46% (Feb 26, 3:50 PM)29.06 "Hg (Feb 23, 6:50 PM)
Average41 °F78%29.79 "Hg
* Reported Feb 16 7:50 PM — Mar 3 7:50 PM, Telford, Weather by CustomWeather, © 2015

Note: Actual official high and low records may vary slightly from our data, if they occured in-between our weather recording intervals... More about our weather records

Advertising

Telford weather history for previous 24 hours

 ConditionsComfort  
Time TempWeatherWind HumidityBarometerVisibility
7:50 PM
Tue, Mar 3
39 °FSprinkles. Partly cloudy.21 mph75%30.01 "HgN/A
6:50 PM39 °FPassing clouds.15 mph65%29.98 "HgN/A
5:50 PM39 °FScattered clouds.17 mph65%29.98 "HgN/A
4:50 PM41 °FPassing clouds.18 mph61%29.95 "HgN/A
3:50 PM43 °FPassing clouds.24 mph53%29.95 "HgN/A
2:50 PM43 °FPassing clouds.24 mph57%29.92 "HgN/A
1:50 PM45 °FScattered clouds.23 mph53%29.92 "HgN/A
12:50 PM45 °FPassing clouds.21 mph49%29.92 "HgN/A
11:50 AM43 °FPassing clouds.23 mph49%29.89 "HgN/A
10:50 AM43 °FPassing clouds.21 mph61%29.89 "HgN/A
9:50 AM41 °FPassing clouds.20 mph66%29.86 "HgN/A
9:09 AM39 °FPassing clouds.14 mph75%29.86 "HgN/A
8:50 AM39 °FPassing clouds.8 mph81%29.86 "HgN/A
7:56 AM36 °FPassing clouds.6 mph87%29.83 "HgN/A
6:50 AM34 °FPassing clouds.5 mph93%29.83 "HgN/A
5:50 AM34 °FPassing clouds.5 mph93%29.80 "HgN/A
4:50 AM36 °FRain. Passing clouds.13 mph93%29.80 "HgN/A
3:50 AM36 °FRain. Passing clouds.12 mph93%29.83 "Hg4 mi
2:50 AM36 °FSprinkles. Partly cloudy.10 mph93%29.83 "HgN/A
1:50 AM37 °FPassing clouds.15 mph81%29.83 "HgN/A
12:50 AM36 °FChilly.15 mph81%29.86 "HgN/A
11:50 PM
Mon, Mar 2
36 °FChilly.12 mph81%29.86 "HgN/A
10:50 PM36 °FChilly.12 mph81%29.86 "HgN/A
9:50 PM36 °FChilly.14 mph87%29.83 "HgN/A
Weather by CustomWeather, © 2015

See weather overviewHow to use our weather pages